Radiation Dose at Monitoring Post of Fukushima Daini Nuclear Power Station
Date,Time,MP-1(microSv/h),MP-2(microSv/h),MP-3(microSv/h),MP-4(microSv/h),MP-5(microSv/h),MP-6(microSv/h),MP-7(microSv/h),Wind Direction,Wind Velocity(m/s),Rain
2017/05/24,00:00,0.377,0.232,0.397,0.371,0.328,0.192,0.147,south-southwest,10.7,No
2017/05/24,00:10,0.380,0.234,0.401,0.370,0.331,0.191,0.146,south-southwest,9.2,No
2017/05/24,00:20,0.378,0.231,0.399,0.370,0.330,0.192,0.147,south-southwest,8.9,No
2017/05/24,00:30,0.380,0.232,0.401,0.369,0.331,0.192,0.146,south-southwest,9.4,No
2017/05/24,00:40,0.377,0.231,0.399,0.369,0.330,0.192,0.147,south-southwest,10.0,No
2017/05/24,00:50,0.381,0.232,0.401,0.369,0.331,0.191,0.146,south-southwest,8.7,No
2017/05/24,01:00,0.377,0.230,0.399,0.369,0.330,0.192,0.147,south-southwest,7.5,No
2017/05/24,01:10,0.380,0.230,0.401,0.370,0.331,0.191,0.146,south-southwest,7.2,No
2017/05/24,01:20,0.377,0.232,0.400,0.369,0.330,0.192,0.148,south-southwest,7.8,No
2017/05/24,01:30,0.381,0.231,0.401,0.371,0.331,0.192,0.147,south-southwest,8.1,No
2017/05/24,01:40,0.376,0.232,0.400,0.369,0.329,0.192,0.146,south-southwest,8.1,No
2017/05/24,01:50,0.379,0.231,0.400,0.371,0.331,0.191,0.147,south-southwest,8.7,No
2017/05/24,02:00,0.378,0.232,0.400,0.369,0.329,0.191,0.147,south-southwest,7.8,No
2017/05/24,02:10,0.381,0.232,0.401,0.370,0.331,0.191,0.145,south-southwest,6.3,No
2017/05/24,02:20,0.377,0.231,0.400,0.368,0.328,0.192,0.147,south-southwest,6.0,No
2017/05/24,02:30,0.381,0.232,0.400,0.371,0.332,0.191,0.146,south-southwest,7.3,No
2017/05/24,02:40,0.379,0.231,0.399,0.368,0.329,0.192,0.147,south,7.4,No
2017/05/24,02:50,0.379,0.232,0.401,0.371,0.331,0.191,0.147,south,8.4,No
2017/05/24,03:00,0.379,0.231,0.399,0.366,0.330,0.191,0.147,south,8.1,No
2017/05/24,03:10,0.380,0.232,0.399,0.371,0.332,0.192,0.147,south-southwest,6.5,No
2017/05/24,03:20,0.378,0.232,0.398,0.369,0.329,0.192,0.146,south-southwest,6.6,No
2017/05/24,03:30,0.378,0.230,0.402,0.371,0.331,0.191,0.146,south-southwest,6.2,No
2017/05/24,03:40,0.379,0.231,0.400,0.368,0.330,0.192,0.146,south-southwest,7.1,No
2017/05/24,03:50,0.379,0.230,0.400,0.373,0.331,0.191,0.148,south-southwest,8.1,No
2017/05/24,04:00,0.378,0.231,0.400,0.368,0.328,0.192,0.146,south-southwest,8.1,No
2017/05/24,04:10,0.381,0.230,0.401,0.370,0.331,0.192,0.146,south-southwest,9.5,No
2017/05/24,04:20,0.378,0.232,0.398,0.367,0.329,0.191,0.147,south-southwest,9.2,No
2017/05/24,04:30,0.381,0.231,0.401,0.371,0.331,0.192,0.146,south-southwest,7.4,No
2017/05/24,04:40,0.376,0.231,0.398,0.368,0.329,0.191,0.147,south-southwest,7.1,No
2017/05/24,04:50,0.380,0.231,0.402,0.371,0.332,0.191,0.146,south-southwest,7.5,No
2017/05/24,05:00,0.378,0.231,0.399,0.368,0.328,0.190,0.147,south-southwest,7.3,No
2017/05/24,05:10,0.379,0.231,0.403,0.371,0.332,0.191,0.146,south-southwest,7.2,No
2017/05/24,05:20,0.380,0.232,0.398,0.366,0.327,0.192,0.147,south-southwest,6.7,No
2017/05/24,05:30,0.378,0.230,0.401,0.371,0.332,0.191,0.146,south,6.0,No
2017/05/24,05:40,0.380,0.232,0.398,0.368,0.328,0.192,0.145,south,6.5,No
2017/05/24,05:50,0.377,0.230,0.404,0.371,0.331,0.190,0.147,south,5.9,No
2017/05/24,06:00,0.379,0.232,0.398,0.368,0.328,0.191,0.146,south-southwest,6.4,No
2017/05/24,06:10,0.376,0.231,0.402,0.369,0.329,0.191,0.147,south-southwest,5.6,No
2017/05/24,06:20,0.381,0.231,0.398,0.368,0.330,0.191,0.146,south-southwest,5.8,No
2017/05/24,06:30,0.377,0.232,0.400,0.370,0.328,0.191,0.147,south-southwest,5.9,No
2017/05/24,06:40,0.379,0.230,0.399,0.370,0.332,0.191,0.146,south-southwest,5.3,No
2017/05/24,06:50,0.380,0.232,0.397,0.368,0.329,0.191,0.146,south-southwest,5.4,No
2017/05/24,07:00,0.375,0.231,0.400,0.371,0.328,0.193,0.146,south-southwest,4.9,No
2017/05/24,07:10,0.381,0.231,0.397,0.368,0.331,0.192,0.146,south-southwest,4.5,No
2017/05/24,07:20,0.377,0.232,0.399,0.370,0.327,0.191,0.145,south-southwest,2.6,No
2017/05/24,07:30,0.376,0.231,0.400,0.370,0.328,0.192,0.146,south,3.4,No
2017/05/24,07:40,0.380,0.229,0.397,0.365,0.330,0.191,0.147,south,4.3,No
2017/05/24,07:50,0.376,0.231,0.397,0.367,0.329,0.192,0.146,south-southwest,6.0,No
2017/05/24,08:00,0.376,0.232,0.401,0.371,0.326,0.192,0.148,south,5.6,No
2017/05/24,08:10,0.381,0.230,0.399,0.367,0.330,0.192,0.146,south-southwest,4.6,No
2017/05/24,08:20,0.378,0.231,0.396,0.365,0.329,0.190,0.147,south-southwest,5.3,No
2017/05/24,08:30,0.375,0.232,0.401,0.371,0.327,0.192,0.145,south-southwest,6.6,No
2017/05/24,08:40,0.380,0.231,0.400,0.369,0.330,0.192,0.144,south,6.0,No
2017/05/24,08:50,0.378,0.230,0.397,0.367,0.331,0.191,0.145,south-southwest,6.8,No
2017/05/24,09:00,0.376,0.231,0.400,0.368,0.329,0.191,0.145,south-southwest,6.6,No
2017/05/24,09:10,0.376,0.231,0.400,0.369,0.326,0.192,0.146,south,6.9,No
2017/05/24,09:20,0.380,0.230,0.398,0.370,0.325,0.189,0.147,south,7.3,No
2017/05/24,09:30,0.379,0.230,0.396,0.367,0.331,0.188,0.144,south,6.7,No
2017/05/24,09:40,0.376,0.230,0.400,0.366,0.332,-,0.146,south,7.2,No
2017/05/24,09:50,0.375,0.232,0.401,0.365,0.330,-,0.146,south,7.3,No
2017/05/24,10:00,0.380,0.233,0.398,0.369,0.328,-,0.146,south,7.6,No
2017/05/24,10:10,0.379,0.230,0.396,0.370,0.327,-,0.146,south,7.5,No
2017/05/24,10:20,0.376,0.230,0.396,0.369,0.327,-,0.145,south,8.7,No
2017/05/24,10:30,0.374,0.230,0.402,0.365,0.327,-,0.146,south,10.1,No
2017/05/24,10:40,0.380,0.231,0.400,0.365,0.332,-,0.145,south,9.5,No
2017/05/24,10:50,0.380,0.231,0.397,0.372,0.330,-,0.146,south,9.5,No
2017/05/24,11:00,0.377,0.229,0.400,0.370,0.328,-,0.146,south,8.5,No
2017/05/24,11:10,0.378,0.232,0.401,0.367,0.328,-,0.146,south,8.6,No
2017/05/24,11:20,0.381,0.232,0.399,0.370,0.332,-,0.146,south,9.7,No
2017/05/24,11:30,0.380,0.230,0.399,0.371,0.330,-,0.147,south,8.7,No
2017/05/24,11:40,0.376,0.233,0.403,0.367,0.328,-,0.146,south,9.2,No
2017/05/24,11:50,0.380,0.232,0.399,0.369,0.332,-,0.146,south,10.1,No
2017/05/24,12:00,0.378,0.230,0.398,0.371,0.330,-,0.146,south,8.5,No
2017/05/24,12:10,0.376,0.232,0.403,0.369,0.328,-,0.145,south,9.3,No
2017/05/24,12:20,0.380,0.232,0.400,0.368,0.329,-,0.146,south-southwest,8.9,No
2017/05/24,12:30,0.378,0.231,0.398,0.371,0.331,-,0.146,south,8.3,No
2017/05/24,12:40,0.374,0.230,0.396,0.369,0.329,-,0.144,south,7.1,No
2017/05/24,12:50,0.377,0.230,0.404,0.367,0.327,-,0.145,south,8.1,No
2017/05/24,13:00,0.381,0.232,0.400,0.366,0.326,-,0.146,south,7.9,No
2017/05/24,13:10,0.378,0.233,0.396,0.370,0.327,-,0.146,south,8.9,No
2017/05/24,13:20,0.375,0.230,0.396,0.370,0.331,-,0.144,south,8.9,No
2017/05/24,13:30,0.381,0.230,0.403,0.368,0.331,-,0.146,south,8.6,No
2017/05/24,13:40,0.380,0.232,0.402,0.367,0.328,-,0.145,south,8.5,No
2017/05/24,13:50,0.377,0.233,0.397,0.370,0.328,-,0.146,south,7.4,No
2017/05/24,14:00,0.380,0.229,0.400,0.367,0.330,-,0.146,south,8.1,No
2017/05/24,14:10,0.382,0.230,0.401,0.366,0.330,-,0.146,south,8.6,No
2017/05/24,14:20,0.376,0.232,0.399,0.370,0.329,-,0.145,south,8.0,No
2017/05/24,14:30,0.377,0.231,0.397,0.368,0.327,-,0.145,south,8.9,No
2017/05/24,14:40,0.382,0.229,0.401,0.367,0.331,-,0.146,south,8.8,No
2017/05/24,14:50,0.379,0.232,0.402,0.370,0.329,-,0.145,south,8.4,No
2017/05/24,15:00,0.375,0.231,0.398,0.369,0.328,-,0.144,south,8.1,No
2017/05/24,15:10,0.379,0.229,0.399,0.366,0.330,-,0.144,south-southwest,6.8,No
2017/05/24,15:20,0.380,0.232,0.402,0.370,0.331,-,0.145,south-southwest,7.0,No
2017/05/24,15:30,0.377,0.233,0.398,0.369,0.329,0.188,0.146,south,8.1,Yes
2017/05/24,15:40,0.383,0.230,0.401,0.367,0.329,0.191,0.146,south-southwest,8.0,No
2017/05/24,15:50,0.378,0.231,0.402,0.370,0.331,0.191,0.146,south-southwest,8.3,No
2017/05/24,16:00,0.377,0.231,0.398,0.369,0.328,0.192,0.146,south-southwest,8.1,No
2017/05/24,16:10,0.380,0.230,0.402,0.366,0.330,0.192,0.145,south,7.1,No
2017/05/24,16:20,0.377,0.232,0.402,0.369,0.334,0.192,0.146,south,7.5,No
2017/05/24,16:30,0.378,0.232,0.398,0.369,0.329,0.192,0.146,south,7.3,No
2017/05/24,16:40,0.381,0.230,0.402,0.365,0.329,0.192,0.146,south,8.7,No
2017/05/24,16:50,0.377,0.232,0.401,0.370,0.333,0.191,0.146,south,9.5,No
2017/05/24,17:00,0.379,0.230,0.397,0.370,0.329,0.191,0.145,south-southwest,8.7,Yes
2017/05/24,17:10,0.380,0.232,0.403,0.368,0.331,0.191,0.144,south-southwest,8.4,Yes
2017/05/24,17:20,0.378,0.232,0.400,0.370,0.332,0.190,0.147,south-southwest,7.1,Yes
2017/05/24,17:30,0.380,0.230,0.398,0.369,0.328,0.192,0.146,south-southwest,6.6,Yes
2017/05/24,17:40,0.380,0.232,0.403,0.368,0.332,0.190,0.146,south-southwest,6.4,Yes
2017/05/24,17:50,0.379,0.231,0.400,0.371,0.330,0.192,0.147,south-southwest,4.5,Yes
2017/05/24,18:00,0.380,0.233,0.401,0.367,0.328,0.192,0.146,north,5.6,Yes
2017/05/24,18:10,0.379,0.231,0.402,0.372,0.334,0.192,0.147,north,4.2,Yes
2017/05/24,18:20,0.382,0.233,0.400,0.369,0.330,0.192,0.147,north,3.8,Yes
2017/05/24,18:30,0.379,0.233,0.403,0.369,0.331,0.192,0.148,north,1.4,Yes
2017/05/24,18:40,0.380,0.232,0.399,0.372,0.331,0.192,0.146,north,1.9,Yes
2017/05/24,18:50,0.382,0.233,0.404,0.367,0.329,0.193,0.146,north,0.7,Yes
2017/05/24,19:00,0.379,0.232,0.400,0.371,0.334,0.192,0.146,northwest,1.0,No
2017/05/24,19:10,0.381,0.233,0.401,0.369,0.329,0.192,0.147,northwest,1.4,No
2017/05/24,19:20,0.377,0.232,0.403,0.369,0.330,0.192,0.146,northwest,1.4,No
2017/05/24,19:30,0.381,0.233,0.398,0.371,0.330,0.192,0.145,northwest,1.2,No
2017/05/24,19:40,0.380,0.232,0.403,0.368,0.330,0.190,0.146,-,CALM,No
2017/05/24,19:50,0.380,0.233,0.399,0.372,0.331,0.191,0.145,-,CALM,No
2017/05/24,20:00,0.380,0.231,0.403,0.370,0.329,0.190,0.147,-,CALM,No
2017/05/24,20:10,0.378,0.233,0.401,0.369,0.331,0.192,0.146,southeast,2.3,No
2017/05/24,20:20,0.380,0.231,0.399,0.371,0.328,0.193,0.147,southeast,1.2,No
2017/05/24,20:30,0.379,0.233,0.403,0.368,0.332,0.191,0.146,south-southeast,0.5,No
2017/05/24,20:40,0.379,0.230,0.400,0.371,0.329,0.192,0.146,south-southeast,1.6,No
2017/05/24,20:50,0.380,0.232,0.404,0.369,0.330,0.191,0.146,south-southwest,1.7,No
2017/05/24,21:00,0.378,0.232,0.399,0.369,0.333,0.192,0.146,south,1.1,No
2017/05/24,21:10,0.381,0.233,0.403,0.369,0.329,0.191,0.146,south-southwest,0.9,No
2017/05/24,21:20,0.377,0.232,0.400,0.369,0.333,0.192,0.146,-,CALM,No
2017/05/24,21:30,0.380,0.232,0.400,0.373,0.329,0.191,0.146,west-southwest,0.5,No
2017/05/24,21:40,0.379,0.231,0.402,0.366,0.332,0.191,0.147,southwest,1.2,No
2017/05/24,21:50,0.381,0.231,0.398,0.371,0.331,0.192,0.146,-,CALM,No
2017/05/24,22:00,0.380,0.232,0.403,0.368,0.328,0.191,0.146,south-southwest,0.6,Yes
2017/05/24,22:10,0.378,0.231,0.400,0.371,0.332,0.192,0.146,south,0.8,Yes
2017/05/24,22:20,0.381,0.231,0.403,0.370,0.328,0.191,0.145,south,2.2,No
2017/05/24,22:30,0.376,0.231,0.400,0.368,0.330,0.192,0.146,south,3.1,No
2017/05/24,22:40,0.383,0.232,0.402,0.370,0.328,0.191,0.146,south,2.3,Yes
2017/05/24,22:50,0.377,0.231,0.400,0.368,0.331,0.192,0.145,south-southwest,1.8,No
2017/05/24,23:00,0.380,0.231,0.401,0.371,0.330,0.191,0.145,southwest,1.9,No
2017/05/24,23:10,0.380,0.232,0.401,0.369,0.329,0.192,0.147,southwest,0.9,No
2017/05/24,23:20,0.378,0.231,0.401,0.370,0.330,0.192,0.146,south-southwest,1.9,No
2017/05/24,23:30,0.381,0.231,0.403,0.370,0.328,0.192,0.147,south-southwest,2.9,No
2017/05/24,23:40,0.379,0.231,0.400,0.370,0.330,0.192,0.146,south-southwest,2.8,No
2017/05/24,23:50,0.381,0.232,0.402,0.368,0.328,0.192,0.147,south-southwest,2.5,No
